Time,TemperatureF,DewpointF,PressureIn,WindDirection,WindDirectionDegrees,WindSpeedMPH,WindSpeedGustMPH,Humidity,HourlyPrecipIn,Conditions,Clouds,dailyrainin,SoftwareType,DateUTC
2013-10-23 00:02:00,48.0,31.3,29.88,NNW,338,2.0,3.0,52,0.00,,,0.00,meteohub,2013-10-23 04:02:00,
2013-10-23 00:07:00,47.8,31.1,29.88,NNW,338,3.0,3.0,52,0.00,,,0.00,meteohub,2013-10-23 04:07:00,
2013-10-23 00:12:00,47.8,31.1,29.88,North,0,2.0,3.0,52,0.00,,,0.00,meteohub,2013-10-23 04:12:00,
2013-10-23 00:17:00,47.7,30.4,29.88,NNW,338,3.0,3.0,51,0.00,,,0.00,meteohub,2013-10-23 04:17:00,
2013-10-23 00:22:00,47.7,30.4,29.88,NNW,338,2.0,4.0,51,0.00,,,0.00,meteohub,2013-10-23 04:22:00,
2013-10-23 00:27:00,47.5,30.4,29.88,NNW,338,3.0,4.0,51,0.00,,,0.00,meteohub,2013-10-23 04:27:00,
2013-10-23 00:32:00,47.3,30.2,29.88,NNW,338,2.0,3.0,51,0.00,,,0.00,meteohub,2013-10-23 04:32:00,
2013-10-23 00:37:00,47.3,30.2,29.88,NNW,338,1.0,3.0,51,0.00,,,0.00,meteohub,2013-10-23 04:37:00,
2013-10-23 00:42:00,47.3,30.2,29.88,NNW,338,0.0,3.0,51,0.00,,,0.00,meteohub,2013-10-23 04:42:00,
2013-10-23 00:47:00,46.9,29.8,29.88,NW,315,0.0,3.0,51,0.00,,,0.00,meteohub,2013-10-23 04:47:00,
2013-10-23 00:52:00,46.4,29.3,29.88,SW,225,0.0,1.0,51,0.00,,,0.00,meteohub,2013-10-23 04:52:00,
2013-10-23 00:57:00,46.4,29.8,29.88,NNE,22,0.0,3.0,52,0.00,,,0.00,meteohub,2013-10-23 04:57:00,
2013-10-23 01:02:00,46.2,29.7,29.88,SE,135,0.0,3.0,52,0.00,,,0.00,meteohub,2013-10-23 05:02:00,
2013-10-23 01:07:00,45.9,29.3,29.88,ESE,112,0.0,1.0,52,0.00,,,0.00,meteohub,2013-10-23 05:07:00,
2013-10-23 01:12:00,45.7,29.1,29.88,SSW,202,0.0,0.0,52,0.00,,,0.00,meteohub,2013-10-23 05:12:00,
2013-10-23 01:17:00,45.3,29.3,29.88,South,180,0.0,0.0,53,0.00,,,0.00,meteohub,2013-10-23 05:17:00,
2013-10-23 01:22:00,45.3,29.3,29.88,South,180,0.0,0.0,53,0.00,,,0.00,meteohub,2013-10-23 05:22:00,
2013-10-23 01:27:00,45.1,29.5,29.88,SW,225,0.0,0.0,54,0.00,,,0.00,meteohub,2013-10-23 05:27:00,
2013-10-23 01:32:00,45.0,29.8,29.88,SSW,202,0.0,0.0,55,0.00,,,0.00,meteohub,2013-10-23 05:32:00,
2013-10-23 01:37:00,44.8,29.7,29.88,WNW,292,0.0,0.0,55,0.00,,,0.00,meteohub,2013-10-23 05:37:00,
2013-10-23 01:42:00,44.6,29.5,29.88,SSW,202,0.0,0.0,55,0.00,,,0.00,meteohub,2013-10-23 05:42:00,
2013-10-23 01:47:00,44.4,29.7,29.88,ESE,112,0.0,0.0,56,0.00,,,0.00,meteohub,2013-10-23 05:47:00,
2013-10-23 01:52:00,43.9,29.7,29.88,SW,225,0.0,0.0,57,0.00,,,0.00,meteohub,2013-10-23 05:52:00,
2013-10-23 01:57:00,43.7,29.5,29.88,SSE,158,0.0,0.0,57,0.00,,,0.00,meteohub,2013-10-23 05:57:00,
2013-10-23 02:02:00,43.5,29.3,29.88,SE,135,1.0,0.0,57,0.00,,,0.00,meteohub,2013-10-23 06:02:00,
2013-10-23 02:07:00,43.7,30.4,29.88,SSW,202,0.0,1.0,59,0.00,,,0.00,meteohub,2013-10-23 06:07:00,
2013-10-23 02:12:00,43.7,30.4,29.88,WSW,248,0.0,1.0,59,0.00,,,0.00,meteohub,2013-10-23 06:12:00,
2013-10-23 02:17:00,43.3,30.0,29.88,WSW,248,0.0,1.0,59,0.00,,,0.00,meteohub,2013-10-23 06:17:00,
2013-10-23 02:22:00,42.6,30.2,29.88,SE,135,0.0,1.0,61,0.00,,,0.00,meteohub,2013-10-23 06:22:00,
2013-10-23 02:27:00,42.3,29.8,29.88,East,90,0.0,0.0,61,0.00,,,0.00,meteohub,2013-10-23 06:27:00,
2013-10-23 02:32:00,42.1,30.0,29.88,SE,135,0.0,0.0,62,0.00,,,0.00,meteohub,2013-10-23 06:32:00,
2013-10-23 02:37:00,41.7,29.3,29.85,SSE,158,0.0,0.0,61,0.00,,,0.00,meteohub,2013-10-23 06:37:00,
2013-10-23 02:42:00,41.7,29.7,29.85,SW,225,0.0,0.0,62,0.00,,,0.00,meteohub,2013-10-23 06:42:00,
2013-10-23 02:47:00,41.4,29.7,29.85,SW,225,0.0,0.0,63,0.00,,,0.00,meteohub,2013-10-23 06:47:00,
2013-10-23 02:52:00,40.8,29.3,29.88,ESE,112,0.0,0.0,63,0.00,,,0.00,meteohub,2013-10-23 06:52:00,
2013-10-23 02:57:00,40.6,29.8,29.88,ESE,112,0.0,0.0,65,0.00,,,0.00,meteohub,2013-10-23 06:57:00,
2013-10-23 03:02:00,40.6,29.8,29.88,NNW,338,0.0,0.0,65,0.00,,,0.00,meteohub,2013-10-23 07:02:00,
2013-10-23 03:07:00,40.6,30.2,29.88,SSE,158,0.0,0.0,66,0.00,,,0.00,meteohub,2013-10-23 07:07:00,
2013-10-23 03:12:00,40.5,30.0,29.88,SSE,158,0.0,0.0,66,0.00,,,0.00,meteohub,2013-10-23 07:12:00,
2013-10-23 03:17:00,40.1,29.7,29.88,ESE,112,0.0,0.0,66,0.00,,,0.00,meteohub,2013-10-23 07:17:00,
2013-10-23 03:22:00,39.7,29.3,29.88,East,90,0.0,0.0,66,0.00,,,0.00,meteohub,2013-10-23 07:22:00,
2013-10-23 03:27:00,39.4,29.7,29.88,ENE,68,0.0,0.0,68,0.00,,,0.00,meteohub,2013-10-23 07:27:00,
2013-10-23 03:32:00,39.4,29.3,29.88,East,90,0.0,0.0,67,0.00,,,0.00,meteohub,2013-10-23 07:32:00,
2013-10-23 03:37:00,39.7,30.0,29.88,ENE,68,0.0,0.0,68,0.00,,,0.00,meteohub,2013-10-23 07:37:00,
2013-10-23 03:42:00,39.9,30.6,29.88,SSE,158,0.0,0.0,69,0.00,,,0.00,meteohub,2013-10-23 07:42:00,
2013-10-23 03:47:00,39.7,31.1,29.88,ESE,112,0.0,1.0,71,0.00,,,0.00,meteohub,2013-10-23 07:47:00,
2013-10-23 03:52:00,39.9,31.6,29.88,SSW,202,0.0,1.0,72,0.00,,,0.00,meteohub,2013-10-23 07:52:00,
2013-10-23 03:57:00,39.7,30.7,29.88,SW,225,1.0,1.0,70,0.00,,,0.00,meteohub,2013-10-23 07:57:00,
2013-10-23 04:02:00,39.6,30.6,29.88,SW,225,1.0,2.0,70,0.00,,,0.00,meteohub,2013-10-23 08:02:00,
2013-10-23 04:07:00,39.2,30.2,29.88,SSW,202,0.0,2.0,70,0.00,,,0.00,meteohub,2013-10-23 08:07:00,
2013-10-23 04:12:00,39.0,30.7,29.88,SSE,158,0.0,2.0,72,0.00,,,0.00,meteohub,2013-10-23 08:12:00,
2013-10-23 04:17:00,38.8,30.2,29.88,SSW,202,0.0,2.0,71,0.00,,,0.00,meteohub,2013-10-23 08:17:00,
2013-10-23 04:22:00,38.7,30.0,29.85,SSW,202,0.0,1.0,71,0.00,,,0.00,meteohub,2013-10-23 08:22:00,
2013-10-23 04:27:00,38.3,29.7,29.85,SSW,202,0.0,0.0,71,0.00,,,0.00,meteohub,2013-10-23 08:27:00,
2013-10-23 04:32:00,38.1,29.7,29.85,SW,225,0.0,0.0,71,0.00,,,0.00,meteohub,2013-10-23 08:32:00,
2013-10-23 04:37:00,37.9,29.7,29.85,SW,225,0.0,0.0,72,0.00,,,0.00,meteohub,2013-10-23 08:37:00,
2013-10-23 04:42:00,37.9,30.0,29.85,SW,225,0.0,0.0,73,0.00,,,0.00,meteohub,2013-10-23 08:42:00,
2013-10-23 04:47:00,37.9,30.0,29.85,SSE,158,0.0,0.0,73,0.00,,,0.00,meteohub,2013-10-23 08:47:00,
2013-10-23 04:52:00,37.9,30.7,29.85,SSE,158,0.0,0.0,75,0.00,,,0.00,meteohub,2013-10-23 08:52:00,
2013-10-23 04:57:00,38.1,30.9,29.85,SW,225,0.0,0.0,75,0.00,,,0.00,meteohub,2013-10-23 08:57:00,
2013-10-23 05:02:00,37.9,30.4,29.85,SW,225,0.0,1.0,74,0.00,,,0.00,meteohub,2013-10-23 09:02:00,
2013-10-23 05:07:00,37.6,29.7,29.85,West,270,1.0,1.0,73,0.00,,,0.00,meteohub,2013-10-23 09:07:00,
2013-10-23 05:12:00,37.4,29.8,29.85,SW,225,1.0,1.0,74,0.00,,,0.00,meteohub,2013-10-23 09:12:00,
2013-10-23 05:17:00,37.6,30.4,29.85,SW,225,1.0,2.0,75,0.00,,,0.00,meteohub,2013-10-23 09:17:00,
2013-10-23 05:22:00,37.8,31.5,29.85,SSW,202,0.0,2.0,78,0.00,,,0.00,meteohub,2013-10-23 09:22:00,
2013-10-23 05:27:00,37.8,31.3,29.85,WSW,248,0.0,2.0,77,0.00,,,0.00,meteohub,2013-10-23 09:27:00,
2013-10-23 05:32:00,37.8,31.3,29.85,SW,225,0.0,2.0,77,0.00,,,0.00,meteohub,2013-10-23 09:32:00,
2013-10-23 05:37:00,37.6,31.1,29.85,SSW,202,1.0,1.0,77,0.00,,,0.00,meteohub,2013-10-23 09:37:00,
2013-10-23 05:42:00,37.6,31.1,29.85,SW,225,0.0,1.0,77,0.00,,,0.00,meteohub,2013-10-23 09:42:00,
2013-10-23 05:47:00,37.6,31.1,29.85,SW,225,0.0,1.0,77,0.00,,,0.00,meteohub,2013-10-23 09:47:00,
2013-10-23 05:52:00,37.6,30.7,29.85,SW,225,0.0,1.0,76,0.00,,,0.00,meteohub,2013-10-23 09:52:00,
2013-10-23 05:57:00,37.4,30.9,29.85,SW,225,0.0,1.0,77,0.00,,,0.00,meteohub,2013-10-23 09:57:00,
2013-10-23 06:02:00,37.4,30.9,29.85,SSW,202,0.0,1.0,77,0.00,,,0.00,meteohub,2013-10-23 10:02:00,
2013-10-23 06:07:00,37.6,31.1,29.82,SSW,202,0.0,1.0,77,0.00,,,0.00,meteohub,2013-10-23 10:07:00,
2013-10-23 06:12:00,37.8,31.5,29.82,SSE,158,0.0,1.0,78,0.00,,,0.00,meteohub,2013-10-23 10:12:00,
2013-10-23 06:17:00,37.9,32.0,29.82,SW,225,1.0,1.0,79,0.00,,,0.00,meteohub,2013-10-23 10:17:00,
2013-10-23 06:22:00,37.9,31.6,29.82,SW,225,0.0,1.0,78,0.00,,,0.00,meteohub,2013-10-23 10:22:00,
2013-10-23 06:27:00,37.6,31.3,29.82,SW,225,0.0,1.0,78,0.00,,,0.00,meteohub,2013-10-23 10:27:00,
2013-10-23 06:32:00,37.2,31.1,29.82,SW,225,0.0,1.0,78,0.00,,,0.00,meteohub,2013-10-23 10:32:00,
2013-10-23 06:37:00,37.0,31.1,29.82,SW,225,0.0,1.0,79,0.00,,,0.00,meteohub,2013-10-23 10:37:00,
2013-10-23 06:42:00,37.0,30.9,29.82,South,180,0.0,0.0,78,0.00,,,0.00,meteohub,2013-10-23 10:42:00,
2013-10-23 06:47:00,37.0,31.1,29.82,SW,225,0.0,0.0,79,0.00,,,0.00,meteohub,2013-10-23 10:47:00,
2013-10-23 06:52:00,37.0,31.5,29.85,SW,225,0.0,1.0,80,0.00,,,0.00,meteohub,2013-10-23 10:52:00,
2013-10-23 06:57:00,37.0,31.1,29.85,SW,225,0.0,1.0,79,0.00,,,0.00,meteohub,2013-10-23 10:57:00,
2013-10-23 07:02:00,37.0,31.1,29.85,SW,225,0.0,1.0,79,0.00,,,0.00,meteohub,2013-10-23 11:02:00,
2013-10-23 07:07:00,37.2,32.2,29.85,WSW,248,0.0,1.0,82,0.00,,,0.00,meteohub,2013-10-23 11:07:00,
2013-10-23 07:12:00,37.4,32.4,29.85,SE,135,0.0,1.0,82,0.00,,,0.00,meteohub,2013-10-23 11:12:00,
2013-10-23 07:17:00,37.8,32.7,29.85,WSW,248,0.0,1.0,82,0.00,,,0.00,meteohub,2013-10-23 11:17:00,
2013-10-23 07:22:00,37.4,31.8,29.85,SW,225,0.0,1.0,80,0.00,,,0.00,meteohub,2013-10-23 11:22:00,
2013-10-23 07:27:00,37.8,32.5,29.85,SW,225,0.0,1.0,81,0.00,,,0.00,meteohub,2013-10-23 11:27:00,
2013-10-23 07:32:00,37.9,32.7,29.85,SW,225,0.0,1.0,81,0.00,,,0.00,meteohub,2013-10-23 11:32:00,
2013-10-23 07:37:00,37.6,31.6,29.85,SW,225,0.0,1.0,79,0.00,,,0.00,meteohub,2013-10-23 11:37:00,
2013-10-23 07:42:00,37.4,31.5,29.85,SW,225,0.0,1.0,79,0.00,,,0.00,meteohub,2013-10-23 11:42:00,
2013-10-23 07:47:00,37.0,31.5,29.85,SSW,202,0.0,0.0,80,0.00,,,0.00,meteohub,2013-10-23 11:47:00,
2013-10-23 07:52:00,37.0,31.5,29.85,SSW,202,0.0,0.0,80,0.00,,,0.00,meteohub,2013-10-23 11:52:00,
2013-10-23 07:57:00,37.2,32.0,29.85,SW,225,1.0,0.0,81,0.00,,,0.00,meteohub,2013-10-23 11:57:00,
2013-10-23 08:02:00,37.4,31.8,29.85,SW,225,1.0,1.0,80,0.00,,,0.00,meteohub,2013-10-23 12:02:00,
2013-10-23 08:07:00,37.4,32.7,29.85,SSW,202,2.0,2.0,83,0.00,,,0.00,meteohub,2013-10-23 12:07:00,
2013-10-23 08:12:00,37.8,33.4,29.85,SW,225,0.0,2.0,84,0.00,,,0.00,meteohub,2013-10-23 12:12:00,
2013-10-23 08:17:00,38.3,33.6,29.85,SW,225,1.0,2.0,83,0.00,,,0.00,meteohub,2013-10-23 12:17:00,
2013-10-23 08:22:00,38.5,33.4,29.85,South,180,0.0,2.0,82,0.00,,,0.00,meteohub,2013-10-23 12:22:00,
2013-10-23 08:27:00,38.8,33.8,29.85,South,180,0.0,2.0,82,0.00,,,0.00,meteohub,2013-10-23 12:27:00,
2013-10-23 08:32:00,39.0,33.6,29.85,South,180,0.0,2.0,81,0.00,,,0.00,meteohub,2013-10-23 12:32:00,
2013-10-23 08:37:00,39.4,34.0,29.82,SSW,202,0.0,1.0,81,0.00,,,0.00,meteohub,2013-10-23 12:37:00,
2013-10-23 08:42:00,39.6,34.2,29.82,SW,225,0.0,0.0,81,0.00,,,0.00,meteohub,2013-10-23 12:42:00,
2013-10-23 08:47:00,39.7,34.2,29.82,SW,225,0.0,0.0,80,0.00,,,0.00,meteohub,2013-10-23 12:47:00,
2013-10-23 08:52:00,39.9,34.3,29.85,SW,225,0.0,0.0,80,0.00,,,0.00,meteohub,2013-10-23 12:52:00,
2013-10-23 08:57:00,40.1,34.5,29.85,ESE,112,0.0,0.0,80,0.00,,,0.00,meteohub,2013-10-23 12:57:00,
2013-10-23 09:02:00,40.8,34.9,29.85,SSW,202,0.0,0.0,79,0.00,,,0.00,meteohub,2013-10-23 13:02:00,
2013-10-23 09:07:00,41.9,34.9,29.82,SSE,158,0.0,0.0,76,0.00,,,0.00,meteohub,2013-10-23 13:07:00,
2013-10-23 09:12:00,43.0,36.0,29.82,SSW,202,0.0,1.0,76,0.00,,,0.00,meteohub,2013-10-23 13:12:00,
2013-10-23 09:17:00,44.1,36.7,29.82,WNW,292,0.0,2.0,75,0.00,,,0.00,meteohub,2013-10-23 13:17:00,
2013-10-23 09:22:00,44.4,36.7,29.82,WNW,292,0.0,3.0,74,0.00,,,0.00,meteohub,2013-10-23 13:22:00,
2013-10-23 09:27:00,44.2,36.1,29.82,WNW,292,0.0,3.0,73,0.00,,,0.00,meteohub,2013-10-23 13:27:00,
2013-10-23 09:32:00,44.2,36.1,29.82,NNE,22,0.0,0.0,73,0.00,,,0.00,meteohub,2013-10-23 13:32:00,
2013-10-23 09:37:00,44.2,35.8,29.82,ENE,68,0.0,0.0,72,0.00,,,0.00,meteohub,2013-10-23 13:37:00,
2013-10-23 09:42:00,44.6,35.8,29.82,NNW,338,0.0,0.0,71,0.00,,,0.00,meteohub,2013-10-23 13:42:00,
2013-10-23 09:47:00,44.8,35.2,29.82,North,0,0.0,1.0,69,0.00,,,0.00,meteohub,2013-10-23 13:47:00,
2013-10-23 09:52:00,45.1,35.2,29.82,West,270,0.0,1.0,68,0.00,,,0.00,meteohub,2013-10-23 13:52:00,
2013-10-23 09:57:00,45.7,35.4,29.82,NNE,22,0.0,1.0,67,0.00,,,0.00,meteohub,2013-10-23 13:57:00,
2013-10-23 10:02:00,45.9,34.7,29.82,North,0,0.0,1.0,65,0.00,,,0.00,meteohub,2013-10-23 14:02:00,
2013-10-23 10:07:00,46.0,34.5,29.82,North,0,0.0,1.0,64,0.00,,,0.00,meteohub,2013-10-23 14:07:00,
2013-10-23 10:12:00,46.6,34.7,29.82,North,0,0.0,0.0,63,0.00,,,0.00,meteohub,2013-10-23 14:12:00,
2013-10-23 10:17:00,47.3,35.4,29.82,NW,315,0.0,0.0,63,0.00,,,0.00,meteohub,2013-10-23 14:17:00,
2013-10-23 10:22:00,47.7,34.9,29.82,NNW,338,1.0,1.0,61,0.00,,,0.00,meteohub,2013-10-23 14:22:00,
2013-10-23 10:27:00,47.8,35.1,29.82,SSW,202,1.0,2.0,61,0.00,,,0.00,meteohub,2013-10-23 14:27:00,
2013-10-23 10:32:00,48.4,34.7,29.82,WNW,292,2.0,2.0,59,0.00,,,0.00,meteohub,2013-10-23 14:32:00,
2013-10-23 10:37:00,48.4,33.4,29.82,NW,315,1.0,2.0,56,0.00,,,0.00,meteohub,2013-10-23 14:37:00,
2013-10-23 10:42:00,48.4,33.4,29.82,WNW,292,0.0,2.0,56,0.00,,,0.00,meteohub,2013-10-23 14:42:00,
2013-10-23 10:47:00,48.6,33.1,29.82,NNW,338,0.0,2.0,55,0.00,,,0.00,meteohub,2013-10-23 14:47:00,
2013-10-23 10:52:00,48.6,32.7,29.82,NNW,338,0.0,2.0,54,0.00,,,0.00,meteohub,2013-10-23 14:52:00,
2013-10-23 10:57:00,48.7,33.3,29.82,WSW,248,0.0,1.0,55,0.00,,,0.00,meteohub,2013-10-23 14:57:00,
2013-10-23 11:02:00,48.7,32.9,29.82,WNW,292,1.0,2.0,54,0.00,,,0.00,meteohub,2013-10-23 15:02:00,
2013-10-23 11:07:00,48.7,32.4,29.79,NNW,338,0.0,2.0,53,0.00,,,0.00,meteohub,2013-10-23 15:07:00,
2013-10-23 11:12:00,48.7,32.0,29.79,NNE,22,2.0,2.0,52,0.00,,,0.00,meteohub,2013-10-23 15:12:00,
2013-10-23 11:17:00,48.9,31.1,29.79,WSW,248,0.0,2.0,50,0.00,,,0.00,meteohub,2013-10-23 15:17:00,
2013-10-23 11:22:00,49.1,31.8,29.82,WSW,248,1.0,2.0,51,0.00,,,0.00,meteohub,2013-10-23 15:22:00,
2013-10-23 11:27:00,49.1,31.8,29.82,NW,315,0.0,2.0,51,0.00,,,0.00,meteohub,2013-10-23 15:27:00,
2013-10-23 11:32:00,49.1,30.7,29.82,NW,315,1.0,2.0,49,0.00,,,0.00,meteohub,2013-10-23 15:32:00,
2013-10-23 11:37:00,49.1,29.8,29.82,NW,315,0.0,2.0,47,0.00,,,0.00,meteohub,2013-10-23 15:37:00,
2013-10-23 11:42:00,49.1,29.8,29.82,NW,315,0.0,2.0,47,0.00,,,0.00,meteohub,2013-10-23 15:42:00,
2013-10-23 11:47:00,49.1,29.8,29.82,NW,315,0.0,2.0,47,0.00,,,0.00,meteohub,2013-10-23 15:47:00,
2013-10-23 11:52:00,49.1,29.8,29.79,NNW,338,0.0,2.0,47,0.00,,,0.00,meteohub,2013-10-23 15:52:00,
2013-10-23 11:57:00,49.1,29.8,29.79,NW,315,1.0,1.0,47,0.00,,,0.00,meteohub,2013-10-23 15:57:00,
2013-10-23 12:02:00,49.3,30.0,29.79,NW,315,1.0,2.0,47,0.00,,,0.00,meteohub,2013-10-23 16:02:00,
2013-10-23 12:07:00,49.3,30.0,29.79,NW,315,0.0,2.0,47,0.00,,,0.00,meteohub,2013-10-23 16:07:00,
2013-10-23 12:12:00,49.5,30.0,29.79,NW,315,0.0,2.0,47,0.00,,,0.00,meteohub,2013-10-23 16:12:00,
2013-10-23 12:17:00,49.5,30.0,29.79,NW,315,0.0,2.0,47,0.00,,,0.00,meteohub,2013-10-23 16:17:00,
2013-10-23 12:22:00,49.5,29.7,29.76,WNW,292,1.0,2.0,46,0.00,,,0.00,meteohub,2013-10-23 16:22:00,
2013-10-23 12:27:00,49.6,30.2,29.76,West,270,0.0,2.0,47,0.00,,,0.00,meteohub,2013-10-23 16:27:00,
2013-10-23 12:32:00,49.8,30.4,29.76,SW,225,1.0,2.0,47,0.00,,,0.00,meteohub,2013-10-23 16:32:00,
2013-10-23 12:37:00,50.0,30.0,29.76,West,270,0.0,3.0,46,0.00,,,0.00,meteohub,2013-10-23 16:37:00,
2013-10-23 12:42:00,50.0,30.6,29.76,WNW,292,0.0,3.0,47,0.00,,,0.00,meteohub,2013-10-23 16:42:00,
2013-10-23 12:47:00,49.8,29.8,29.76,NW,315,0.0,3.0,46,0.00,,,0.00,meteohub,2013-10-23 16:47:00,
2013-10-23 12:52:00,50.0,30.0,29.76,NW,315,0.0,2.0,46,0.00,,,0.00,meteohub,2013-10-23 16:52:00,
2013-10-23 12:57:00,50.0,30.0,29.76,SW,225,0.0,2.0,46,0.00,,,0.00,meteohub,2013-10-23 16:57:00,
2013-10-23 13:02:00,50.2,30.2,29.76,SSW,202,3.0,3.0,46,0.00,,,0.00,meteohub,2013-10-23 17:02:00,
2013-10-23 13:07:00,50.2,29.1,29.76,WSW,248,1.0,3.0,44,0.00,,,0.00,meteohub,2013-10-23 17:07:00,
2013-10-23 13:12:00,50.4,29.8,29.76,WNW,292,3.0,3.0,45,0.00,,,0.00,meteohub,2013-10-23 17:12:00,
2013-10-23 13:17:00,50.4,29.8,29.76,WSW,248,0.0,3.0,45,0.00,,,0.00,meteohub,2013-10-23 17:17:00,
2013-10-23 13:22:00,50.2,29.1,29.76,NW,315,2.0,3.0,44,0.00,,,0.00,meteohub,2013-10-23 17:22:00,
2013-10-23 13:27:00,50.2,28.6,29.76,NNW,338,2.0,3.0,43,0.00,,,0.00,meteohub,2013-10-23 17:27:00,
2013-10-23 13:32:00,50.0,28.4,29.76,North,0,0.0,3.0,43,0.00,,,0.00,meteohub,2013-10-23 17:32:00,
2013-10-23 13:37:00,49.8,28.2,29.73,NE,45,0.0,2.0,43,0.00,,,0.00,meteohub,2013-10-23 17:37:00,
2013-10-23 13:42:00,49.8,28.2,29.73,WSW,248,1.0,2.0,43,0.00,,,0.00,meteohub,2013-10-23 17:42:00,
2013-10-23 13:47:00,49.8,28.2,29.73,WNW,292,1.0,2.0,43,0.00,,,0.00,meteohub,2013-10-23 17:47:00,
2013-10-23 13:52:00,50.0,28.4,29.70,West,270,0.0,2.0,43,0.00,,,0.00,meteohub,2013-10-23 17:52:00,
2013-10-23 13:57:00,50.0,28.4,29.70,WNW,292,0.0,2.0,43,0.00,,,0.00,meteohub,2013-10-23 17:57:00,
2013-10-23 14:02:00,50.0,28.4,29.70,NNW,338,0.0,1.0,43,0.00,,,0.00,meteohub,2013-10-23 18:02:00,
2013-10-23 14:07:00,50.0,27.9,29.70,NNW,338,1.0,1.0,42,0.00,,,0.00,meteohub,2013-10-23 18:07:00,
2013-10-23 14:12:00,50.0,27.9,29.70,NNW,338,1.0,2.0,42,0.00,,,0.00,meteohub,2013-10-23 18:12:00,
2013-10-23 14:17:00,50.0,27.9,29.70,NNW,338,0.0,2.0,42,0.00,,,0.00,meteohub,2013-10-23 18:17:00,
2013-10-23 14:22:00,50.2,28.0,29.67,NNW,338,1.0,2.0,42,0.00,,,0.00,meteohub,2013-10-23 18:22:00,
2013-10-23 14:27:00,50.2,28.0,29.67,North,0,0.0,2.0,42,0.00,,,0.00,meteohub,2013-10-23 18:27:00,
2013-10-23 14:32:00,50.2,27.5,29.67,NNW,338,0.0,2.0,41,0.00,,,0.00,meteohub,2013-10-23 18:32:00,
2013-10-23 14:37:00,50.2,28.0,29.70,East,90,1.0,2.0,42,0.00,,,0.00,meteohub,2013-10-23 18:37:00,
2013-10-23 14:42:00,50.4,28.2,29.70,NE,45,0.0,2.0,42,0.00,,,0.00,meteohub,2013-10-23 18:42:00,
2013-10-23 14:47:00,50.4,28.2,29.70,ENE,68,0.0,2.0,42,0.00,,,0.00,meteohub,2013-10-23 18:47:00,
2013-10-23 14:52:00,50.4,28.2,29.67,NNW,338,1.0,2.0,42,0.00,,,0.00,meteohub,2013-10-23 18:52:00,
2013-10-23 14:57:00,50.4,28.2,29.67,NW,315,1.0,2.0,42,0.00,,,0.00,meteohub,2013-10-23 18:57:00,
2013-10-23 15:02:00,50.4,28.2,29.67,West,270,1.0,2.0,42,0.00,,,0.00,meteohub,2013-10-23 19:02:00,
2013-10-23 15:07:00,50.2,28.0,29.70,WNW,292,0.0,2.0,42,0.00,,,0.00,meteohub,2013-10-23 19:07:00,
2013-10-23 15:12:00,50.2,28.0,29.70,NW,315,0.0,2.0,42,0.00,,,0.00,meteohub,2013-10-23 19:12:00,
2013-10-23 15:17:00,50.2,28.0,29.70,WNW,292,1.0,2.0,42,0.00,,,0.00,meteohub,2013-10-23 19:17:00,
2013-10-23 15:22:00,50.2,28.6,29.70,WNW,292,1.0,2.0,43,0.00,,,0.00,meteohub,2013-10-23 19:22:00,
2013-10-23 15:27:00,50.2,28.0,29.70,NW,315,0.0,2.0,42,0.00,,,0.00,meteohub,2013-10-23 19:27:00,
2013-10-23 15:32:00,50.0,27.9,29.70,NW,315,1.0,2.0,42,0.00,,,0.00,meteohub,2013-10-23 19:32:00,
2013-10-23 15:37:00,50.0,27.9,29.70,NW,315,0.0,2.0,42,0.00,,,0.00,meteohub,2013-10-23 19:37:00,
2013-10-23 15:42:00,50.0,27.9,29.70,NW,315,2.0,2.0,42,0.00,,,0.00,meteohub,2013-10-23 19:42:00,
2013-10-23 15:47:00,49.8,27.7,29.70,NNW,338,2.0,2.0,42,0.00,,,0.00,meteohub,2013-10-23 19:47:00,
2013-10-23 15:52:00,49.8,27.7,29.70,NNW,338,3.0,3.0,42,0.00,,,0.00,meteohub,2013-10-23 19:52:00,
2013-10-23 15:57:00,49.8,27.7,29.70,NNW,338,1.0,3.0,42,0.00,,,0.00,meteohub,2013-10-23 19:57:00,
2013-10-23 16:02:00,49.8,27.7,29.70,NNW,338,1.0,3.0,42,0.00,,,0.00,meteohub,2013-10-23 20:02:00,
2013-10-23 16:07:00,49.8,28.2,29.70,WSW,248,2.0,3.0,43,0.00,,,0.00,meteohub,2013-10-23 20:07:00,
2013-10-23 16:12:00,49.8,27.7,29.70,NW,315,2.0,2.0,42,0.00,,,0.00,meteohub,2013-10-23 20:12:00,
2013-10-23 16:17:00,49.8,28.2,29.70,NW,315,0.0,2.0,43,0.00,,,0.00,meteohub,2013-10-23 20:17:00,
2013-10-23 16:22:00,49.8,28.2,29.67,NW,315,0.0,2.0,43,0.00,,,0.00,meteohub,2013-10-23 20:22:00,
2013-10-23 16:27:00,49.8,28.2,29.67,NW,315,0.0,2.0,43,0.00,,,0.00,meteohub,2013-10-23 20:27:00,
2013-10-23 16:32:00,49.8,28.2,29.67,NNE,22,0.0,1.0,43,0.00,,,0.00,meteohub,2013-10-23 20:32:00,
2013-10-23 16:37:00,49.8,28.2,29.70,NNE,22,0.0,1.0,43,0.00,,,0.00,meteohub,2013-10-23 20:37:00,
2013-10-23 16:42:00,49.8,28.2,29.70,NNW,338,0.0,1.0,43,0.00,,,0.00,meteohub,2013-10-23 20:42:00,
2013-10-23 16:47:00,49.8,28.2,29.70,NNW,338,0.0,0.0,43,0.00,,,0.00,meteohub,2013-10-23 20:47:00,
2013-10-23 16:52:00,49.6,28.6,29.67,NNW,338,0.0,0.0,44,0.00,,,0.00,meteohub,2013-10-23 20:52:00,
2013-10-23 16:57:00,49.5,28.6,29.67,WSW,248,0.0,0.0,44,0.00,,,0.00,meteohub,2013-10-23 20:57:00,
2013-10-23 17:02:00,49.5,28.6,29.67,SSW,202,0.0,1.0,44,0.00,,,0.00,meteohub,2013-10-23 21:02:00,
2013-10-23 17:07:00,49.3,28.9,29.70,SW,225,0.0,1.0,45,0.00,,,0.00,meteohub,2013-10-23 21:07:00,
2013-10-23 17:12:00,49.3,28.9,29.70,SW,225,1.0,1.0,45,0.00,,,0.00,meteohub,2013-10-23 21:12:00,
2013-10-23 17:17:00,49.1,29.3,29.70,East,90,0.0,1.0,46,0.00,,,0.00,meteohub,2013-10-23 21:17:00,
2013-10-23 17:22:00,49.1,29.3,29.70,ENE,68,0.0,1.0,46,0.00,,,0.00,meteohub,2013-10-23 21:22:00,
2013-10-23 17:27:00,48.9,29.1,29.70,ESE,112,0.0,1.0,46,0.00,,,0.00,meteohub,2013-10-23 21:27:00,
2013-10-23 17:32:00,48.7,29.5,29.70,SW,225,0.0,0.0,47,0.00,,,0.00,meteohub,2013-10-23 21:32:00,
2013-10-23 17:37:00,48.7,29.5,29.70,SSW,202,0.0,0.0,47,0.00,,,0.00,meteohub,2013-10-23 21:37:00,
2013-10-23 17:42:00,48.6,29.3,29.70,WSW,248,0.0,0.0,47,0.00,,,0.00,meteohub,2013-10-23 21:42:00,
2013-10-23 17:47:00,48.4,29.7,29.70,SW,225,0.0,0.0,48,0.00,,,0.00,meteohub,2013-10-23 21:47:00,
2013-10-23 17:52:00,48.4,29.7,29.70,East,90,0.0,1.0,48,0.00,,,0.00,meteohub,2013-10-23 21:52:00,
2013-10-23 17:57:00,48.4,29.7,29.70,SSE,158,0.0,1.0,48,0.00,,,0.00,meteohub,2013-10-23 21:57:00,
2013-10-23 18:02:00,48.2,29.5,29.70,SSW,202,0.0,1.0,48,0.00,,,0.00,meteohub,2013-10-23 22:02:00,
2013-10-23 18:07:00,48.2,30.0,29.70,South,180,0.0,1.0,49,0.00,,,0.00,meteohub,2013-10-23 22:07:00,
2013-10-23 18:12:00,48.0,29.8,29.70,SW,225,0.0,1.0,49,0.00,,,0.00,meteohub,2013-10-23 22:12:00,
2013-10-23 18:17:00,48.0,29.8,29.70,South,180,0.0,1.0,49,0.00,,,0.00,meteohub,2013-10-23 22:17:00,
2013-10-23 18:22:00,48.2,29.5,29.70,SW,225,0.0,1.0,48,0.00,,,0.00,meteohub,2013-10-23 22:22:00,
2013-10-23 18:27:00,48.0,29.8,29.70,ESE,112,0.0,0.0,49,0.00,,,0.00,meteohub,2013-10-23 22:27:00,
2013-10-23 18:32:00,47.7,30.0,29.70,ESE,112,0.0,2.0,50,0.00,,,0.00,meteohub,2013-10-23 22:32:00,
2013-10-23 18:37:00,47.5,29.8,29.70,East,90,0.0,2.0,50,0.00,,,0.00,meteohub,2013-10-23 22:37:00,
2013-10-23 18:42:00,47.5,30.4,29.70,East,90,0.0,2.0,51,0.00,,,0.00,meteohub,2013-10-23 22:42:00,
2013-10-23 18:47:00,46.9,29.8,29.70,East,90,0.0,0.0,51,0.00,,,0.00,meteohub,2013-10-23 22:47:00,
2013-10-23 18:52:00,46.8,29.7,29.70,SSE,158,0.0,0.0,51,0.00,,,0.00,meteohub,2013-10-23 22:52:00,
2013-10-23 18:57:00,46.8,29.7,29.70,SW,225,0.0,0.0,51,0.00,,,0.00,meteohub,2013-10-23 22:57:00,
2013-10-23 19:02:00,46.8,30.0,29.70,ESE,112,0.0,0.0,52,0.00,,,0.00,meteohub,2013-10-23 23:02:00,
2013-10-23 19:07:00,46.4,29.8,29.70,South,180,0.0,0.0,52,0.00,,,0.00,meteohub,2013-10-23 23:07:00,
2013-10-23 19:12:00,46.4,29.8,29.70,SW,225,0.0,2.0,52,0.00,,,0.00,meteohub,2013-10-23 23:12:00,
2013-10-23 19:17:00,46.6,29.5,29.70,SSW,202,0.0,2.0,51,0.00,,,0.00,meteohub,2013-10-23 23:17:00,
2013-10-23 19:22:00,46.8,29.7,29.70,ESE,112,0.0,2.0,51,0.00,,,0.00,meteohub,2013-10-23 23:22:00,
2013-10-23 19:27:00,46.6,30.0,29.70,WSW,248,0.0,2.0,52,0.00,,,0.00,meteohub,2013-10-23 23:27:00,
2013-10-23 19:32:00,46.2,30.0,29.70,WSW,248,0.0,2.0,53,0.00,,,0.00,meteohub,2013-10-23 23:32:00,
2013-10-23 19:37:00,45.7,30.6,29.70,WSW,248,0.0,1.0,55,0.00,,,0.00,meteohub,2013-10-23 23:37:00,
2013-10-23 19:42:00,45.5,30.7,29.70,WSW,248,0.0,0.0,56,0.00,,,0.00,meteohub,2013-10-23 23:42:00,
2013-10-23 19:47:00,45.5,30.4,29.70,WSW,248,0.0,0.0,55,0.00,,,0.00,meteohub,2013-10-23 23:47:00,
2013-10-23 19:52:00,45.5,31.1,29.70,SW,225,0.0,0.0,57,0.00,,,0.00,meteohub,2013-10-23 23:52:00,
2013-10-23 19:57:00,45.5,31.1,29.70,SW,225,0.0,0.0,57,0.00,,,0.00,meteohub,2013-10-23 23:57:00,
2013-10-23 20:02:00,45.5,30.7,29.70,SSE,158,0.0,0.0,56,0.00,,,0.00,meteohub,2013-10-24 00:02:00,
2013-10-23 20:07:00,45.5,30.7,29.70,East,90,1.0,0.0,56,0.00,,,0.00,meteohub,2013-10-24 00:07:00,
2013-10-23 20:12:00,45.5,30.7,29.70,SSW,202,0.0,1.0,56,0.00,,,0.00,meteohub,2013-10-24 00:12:00,
2013-10-23 20:17:00,45.7,30.6,29.70,WSW,248,0.0,2.0,55,0.00,,,0.00,meteohub,2013-10-24 00:17:00,
2013-10-23 20:22:00,45.9,30.6,29.70,SW,225,0.0,2.0,55,0.00,,,0.00,meteohub,2013-10-24 00:22:00,
2013-10-23 20:27:00,45.9,30.6,29.70,East,90,0.0,2.0,55,0.00,,,0.00,meteohub,2013-10-24 00:27:00,
2013-10-23 20:32:00,45.9,30.2,29.70,SE,135,0.0,1.0,54,0.00,,,0.00,meteohub,2013-10-24 00:32:00,
2013-10-23 20:37:00,45.7,30.0,29.70,ESE,112,0.0,0.0,54,0.00,,,0.00,meteohub,2013-10-24 00:37:00,
2013-10-23 20:42:00,45.7,30.0,29.70,West,270,0.0,0.0,54,0.00,,,0.00,meteohub,2013-10-24 00:42:00,
2013-10-23 20:47:00,45.7,30.0,29.70,SSW,202,0.0,1.0,54,0.00,,,0.00,meteohub,2013-10-24 00:47:00,
2013-10-23 20:52:00,45.9,30.2,29.70,SSW,202,0.0,1.0,54,0.00,,,0.00,meteohub,2013-10-24 00:52:00,
2013-10-23 20:57:00,45.9,30.2,29.70,SW,225,0.0,1.0,54,0.00,,,0.00,meteohub,2013-10-24 00:57:00,
2013-10-23 21:02:00,45.9,30.2,29.70,SSW,202,0.0,0.0,54,0.00,,,0.00,meteohub,2013-10-24 01:02:00,
2013-10-23 21:07:00,45.9,30.6,29.73,SW,225,0.0,0.0,55,0.00,,,0.00,meteohub,2013-10-24 01:07:00,
2013-10-23 21:12:00,45.9,30.2,29.73,SSW,202,0.0,0.0,54,0.00,,,0.00,meteohub,2013-10-24 01:12:00,
2013-10-23 21:17:00,45.9,30.2,29.73,SSW,202,0.0,0.0,54,0.00,,,0.00,meteohub,2013-10-24 01:17:00,
2013-10-23 21:22:00,45.9,30.2,29.67,SSW,202,0.0,0.0,54,0.00,,,0.00,meteohub,2013-10-24 01:22:00,
2013-10-23 21:27:00,45.9,30.2,29.67,South,180,1.0,0.0,54,0.00,,,0.00,meteohub,2013-10-24 01:27:00,
2013-10-23 21:32:00,46.0,30.4,29.67,South,180,0.0,2.0,54,0.00,,,0.00,meteohub,2013-10-24 01:32:00,
2013-10-23 21:37:00,46.0,30.4,29.67,SW,225,2.0,2.0,54,0.00,,,0.00,meteohub,2013-10-24 01:37:00,
2013-10-23 21:42:00,46.0,30.4,29.67,SW,225,1.0,2.0,54,0.00,,,0.00,meteohub,2013-10-24 01:42:00,
2013-10-23 21:47:00,46.2,30.9,29.67,WNW,292,0.0,2.0,55,0.00,,,0.00,meteohub,2013-10-24 01:47:00,
2013-10-23 21:52:00,46.2,30.9,29.70,WSW,248,1.0,2.0,55,0.00,,,0.00,meteohub,2013-10-24 01:52:00,
2013-10-23 21:57:00,46.2,30.9,29.70,SSW,202,2.0,2.0,55,0.00,,,0.00,meteohub,2013-10-24 01:57:00,
2013-10-23 22:02:00,46.4,30.7,29.70,West,270,0.0,2.0,54,0.00,,,0.00,meteohub,2013-10-24 02:02:00,
2013-10-23 22:07:00,46.4,30.7,29.67,WNW,292,1.0,2.0,54,0.00,,,0.00,meteohub,2013-10-24 02:07:00,
2013-10-23 22:12:00,46.4,31.1,29.67,West,270,1.0,2.0,55,0.00,,,0.00,meteohub,2013-10-24 02:12:00,
2013-10-23 22:17:00,46.4,30.7,29.67,East,90,0.0,2.0,54,0.00,,,0.00,meteohub,2013-10-24 02:17:00,
2013-10-23 22:22:00,46.4,30.7,29.70,WNW,292,0.0,2.0,54,0.00,,,0.00,meteohub,2013-10-24 02:22:00,
2013-10-23 22:27:00,46.6,30.9,29.70,NNW,338,2.0,2.0,54,0.00,,,0.00,meteohub,2013-10-24 02:27:00,
2013-10-23 22:32:00,46.6,30.4,29.70,NW,315,1.0,2.0,53,0.00,,,0.00,meteohub,2013-10-24 02:32:00,
2013-10-23 22:37:00,46.6,30.4,29.70,NW,315,1.0,3.0,53,0.00,,,0.00,meteohub,2013-10-24 02:37:00,
2013-10-23 22:42:00,46.8,30.6,29.70,NW,315,0.0,3.0,53,0.00,,,0.00,meteohub,2013-10-24 02:42:00,
2013-10-23 22:52:00,46.8,30.6,29.70,ESE,112,1.0,2.0,53,0.00,,,0.00,meteohub,2013-10-24 02:52:00,
2013-10-23 22:57:00,46.8,30.6,29.70,North,0,0.0,3.0,53,0.00,,,0.00,meteohub,2013-10-24 02:57:00,
2013-10-23 23:02:00,46.8,30.0,29.70,NNW,338,2.0,3.0,52,0.00,,,0.00,meteohub,2013-10-24 03:02:00,
2013-10-23 23:07:00,46.9,29.8,29.70,NNW,338,2.0,3.0,51,0.00,,,0.00,meteohub,2013-10-24 03:07:00,
2013-10-23 23:12:00,47.1,30.4,29.70,NNW,338,2.0,3.0,52,0.00,,,0.00,meteohub,2013-10-24 03:12:00,
2013-10-23 23:17:00,46.9,29.8,29.70,NNW,338,2.0,3.0,51,0.00,,,0.00,meteohub,2013-10-24 03:17:00,
2013-10-23 23:22:00,47.1,30.0,29.70,NNW,338,3.0,3.0,51,0.00,,,0.00,meteohub,2013-10-24 03:22:00,
2013-10-23 23:27:00,47.1,30.0,29.70,WNW,292,2.0,4.0,51,0.00,,,0.00,meteohub,2013-10-24 03:27:00,
2013-10-23 23:32:00,47.1,30.0,29.70,NW,315,2.0,5.0,51,0.00,,,0.00,meteohub,2013-10-24 03:32:00,
2013-10-23 23:37:00,47.1,30.4,29.73,NNW,338,1.0,5.0,52,0.00,,,0.00,meteohub,2013-10-24 03:37:00,
2013-10-23 23:42:00,47.1,30.0,29.73,NW,315,2.0,5.0,51,0.00,,,0.00,meteohub,2013-10-24 03:42:00,
2013-10-23 23:47:00,47.1,30.0,29.73,NNW,338,3.0,5.0,51,0.00,,,0.00,meteohub,2013-10-24 03:47:00,
2013-10-23 23:52:00,47.1,30.0,29.73,NNW,338,3.0,5.0,51,0.00,,,0.00,meteohub,2013-10-24 03:52:00,
2013-10-23 23:57:00,47.1,30.0,29.73,NW,315,4.0,5.0,51,0.00,,,0.00,meteohub,2013-10-24 03:57:00,